"startDT [UTC]","vpos","CH4 [ppm]","stdev(CH4) [ppm]","CO2 [ppm]","stdev(CO2) [ppm]","H2O [ppm]","stdev(H2O)","p_LGR [torr]","T_LGR [C]","mt1_LGR [us]","mt2_LGR [us]","T_ECpre [C]","T_EC1 [C]","T_EC2 [C]","p_inlet [hPa]","p_in [hPa]","p_out [hPa]","T_inlet [C]","RH_inlet [%]","dwpt_inlet [C]","T_vent [C]","RH_vent [%]","dwpt_vent [C]","flow_vent [l min-1]","flow_inlet [l min-1]","dwpt_sample [C]","T_room [C]"
2012-01-15 00:00:00,0.0,1.9339,0.0009,403.05,0.18,-1.0,0.0,138.23,23.14,24.58,36.26,0.04,-272.74,-272.74,-44,539,-938,17.9,1.0,-38.8,18.0,1.1,-38.4,5.73,2.45,-36.5,23.0
2012-01-15 00:01:00,0.0,1.9333,0.0010,403.05,0.19,-1.0,0.0,138.23,23.14,24.58,36.26,0.04,-272.74,-272.74,-43,539,-938,18.0,1.0,-38.6,18.0,1.1,-38.2,5.73,2.46,-36.5,23.0
2012-01-15 00:02:00,0.0,1.9347,0.0009,403.09,0.15,-1.0,0.0,138.23,23.14,24.58,36.25,0.04,-272.74,-272.74,-43,540,-938,17.9,1.0,-38.7,18.0,1.1,-38.1,5.73,2.49,-36.5,23.0
2012-01-15 00:03:00,0.0,1.9346,0.0010,403.03,0.19,-1.0,0.0,138.23,23.14,24.58,36.26,0.04,-272.74,-272.73,-44,540,-938,18.0,1.0,-38.6,18.0,1.1,-38.1,5.73,2.51,-36.5,23.0
2012-01-15 00:04:00,0.0,1.9348,0.0010,403.02,0.20,-1.0,0.0,138.23,23.14,24.58,36.26,0.04,-272.74,-272.74,-44,539,-938,18.0,1.0,-38.7,18.0,1.1,-38.1,5.73,2.50,-36.5,23.0
2012-01-15 00:05:00,0.0,1.9344,0.0008,403.10,0.16,-1.0,0.0,138.23,23.14,24.58,36.25,0.04,-272.73,-272.74,-43,539,-938,18.0,1.0,-38.6,18.0,1.1,-38.1,5.73,2.48,-36.5,23.0
2012-01-15 00:06:00,0.0,1.9340,0.0008,403.02,0.18,-1.0,0.0,138.23,23.14,24.58,36.26,0.04,-272.73,-272.73,-43,540,-938,17.9,1.0,-38.7,18.0,1.1,-38.2,5.73,2.46,-36.5,23.1
2012-01-15 00:07:00,0.0,1.9336,0.0009,403.03,0.19,-1.0,0.0,138.23,23.14,24.58,36.26,0.04,-272.73,-272.73,-43,540,-938,18.0,1.0,-38.6,18.0,1.1,-38.1,5.73,2.45,-36.5,23.0
2012-01-15 00:08:00,0.0,1.9348,0.0009,403.10,0.17,-1.0,0.0,138.23,23.14,24.57,36.26,0.04,-272.74,-272.74,-44,540,-938,18.0,1.0,-38.7,18.1,1.1,-38.1,5.73,2.48,-36.5,23.0
2012-01-15 00:09:00,0.0,1.9342,0.0009,403.08,0.19,-1.0,0.0,138.23,23.14,24.58,36.26,0.04,-272.73,-272.73,-44,540,-938,18.0,1.0,-38.6,18.0,1.1,-38.1,5.73,2.51,-36.5,23.1
2012-01-15 00:10:00,0.0,1.9335,0.0008,402.99,0.19,-1.0,0.0,138.23,23.14,24.58,36.26,0.04,-272.73,-272.73,-43,540,-938,18.0,1.0,-38.6,18.1,1.1,-38.1,5.73,2.51,-36.5,23.1
2012-01-15 00:11:00,0.0,1.9346,0.0010,403.16,0.21,-1.0,0.0,138.23,23.14,24.57,36.25,0.04,-272.74,-272.74,-43,540,-938,18.0,1.0,-38.6,18.0,1.1,-38.1,5.73,2.49,-36.5,23.0
2012-01-15 00:12:00,0.0,1.9348,0.0009,403.11,0.19,-1.0,0.0,138.23,23.14,24.58,36.25,0.04,-272.74,-272.74,-43,540,-939,18.0,1.0,-38.6,18.0,1.1,-38.1,5.73,2.46,-36.5,23.1
2012-01-15 00:13:00,0.0,1.9347,0.0009,402.96,0.18,-1.0,0.0,138.23,23.14,24.58,36.26,0.04,-272.74,-272.73,-44,540,-938,17.9,1.0,-38.6,18.0,1.1,-38.1,5.73,2.45,-36.4,23.1
2012-01-15 00:14:00,0.0,1.9342,0.0007,402.97,0.17,-1.0,0.0,138.23,23.14,24.58,36.25,0.04,-272.74,-272.73,-44,540,-938,17.9,1.0,-38.7,18.0,1.1,-38.2,5.73,2.46,-36.5,23.1
2012-01-15 00:15:00,0.0,1.9348,0.0009,402.99,0.17,-1.0,0.0,138.23,23.14,24.57,36.26,0.04,-272.74,-272.73,-43,540,-938,17.9,1.0,-38.9,18.0,1.1,-38.4,5.73,2.50,-36.5,23.1
2012-01-15 00:16:00,0.0,1.9344,0.0009,402.95,0.20,-1.0,0.0,138.23,23.13,24.58,36.26,0.04,-272.73,-272.74,-43,540,-938,17.9,1.0,-38.9,18.0,1.1,-38.4,5.73,2.52,-36.4,23.1
2012-01-15 00:17:00,0.0,1.9344,0.0011,402.91,0.15,-1.0,0.0,138.23,23.14,24.58,36.26,0.04,-272.73,-272.73,-44,540,-938,17.9,1.0,-38.9,18.0,1.1,-38.4,5.73,2.50,-36.4,23.0
2012-01-15 00:18:00,0.0,1.9345,0.0009,402.93,0.21,-1.0,0.0,138.23,23.13,24.58,36.26,0.04,-272.74,-272.74,-44,540,-939,17.9,1.0,-38.9,18.0,1.1,-38.3,5.73,2.47,-36.4,23.0
2012-01-15 00:19:00,0.0,1.9345,0.0009,403.01,0.20,-1.0,0.0,138.23,23.13,24.58,36.25,0.04,-272.74,-272.74,-43,540,-938,17.9,1.0,-39.0,18.0,1.1,-38.4,5.73,2.45,-36.4,23.0
2012-01-15 00:20:00,0.0,1.9348,0.0009,403.00,0.17,-1.0,0.0,138.23,23.14,24.57,36.25,0.04,-272.73,-272.73,-43,540,-938,17.9,1.0,-38.9,18.0,1.1,-38.4,5.73,2.45,-36.5,23.0
2012-01-15 00:21:00,0.0,1.9345,0.0010,403.06,0.18,-1.0,0.0,138.23,23.14,24.58,36.25,0.04,-272.73,-272.74,-43,540,-938,17.9,1.0,-38.9,18.0,1.1,-38.4,5.73,2.49,-36.5,23.0
2012-01-15 00:22:00,0.0,1.9350,0.0010,403.03,0.19,-1.0,0.0,138.23,23.14,24.58,36.26,0.04,-272.74,-272.73,-44,540,-939,17.9,1.0,-38.9,18.0,1.1,-38.4,5.73,2.51,-36.4,23.0
2012-01-15 00:23:00,0.0,1.9349,0.0010,402.98,0.19,-1.0,0.0,138.23,23.14,24.58,36.26,0.04,-272.73,-272.73,-44,540,-938,17.9,1.0,-39.0,18.0,1.0,-38.6,5.73,2.51,-36.4,23.0
2012-01-15 00:24:00,0.0,1.9348,0.0009,402.97,0.22,-1.0,0.0,138.23,23.14,24.58,36.26,0.04,-272.73,-272.74,-43,540,-938,18.0,1.0,-39.1,18.0,1.0,-38.6,5.73,2.49,-36.4,23.0
2012-01-15 00:25:00,0.0,1.9350,0.0009,403.04,0.18,-1.0,0.0,138.24,23.14,24.58,36.25,0.04,-272.74,-272.74,-43,540,-938,18.0,1.0,-39.2,18.0,1.0,-38.6,5.73,2.46,-36.4,23.0
2012-01-15 00:26:00,0.0,1.9354,0.0009,403.07,0.21,-1.0,0.0,138.23,23.14,24.58,36.26,0.04,-272.74,-272.73,-43,539,-938,18.0,1.0,-39.4,18.0,1.0,-38.9,5.73,2.45,-36.4,23.0
2012-01-15 00:27:00,0.0,1.9354,0.0009,403.07,0.17,-1.0,0.0,138.23,23.14,24.57,36.26,0.04,-272.73,-272.74,-44,540,-938,18.0,1.0,-39.4,18.0,1.0,-38.9,5.73,2.47,-36.3,23.0
2012-01-15 00:28:00,0.0,1.9361,0.0009,403.10,0.17,-1.0,0.0,138.23,23.14,24.57,36.26,0.04,-272.73,-272.74,-44,540,-938,18.0,1.0,-39.4,18.0,1.0,-39.0,5.73,2.50,-36.4,23.0
2012-01-15 00:29:00,0.0,1.9366,0.0010,403.13,0.22,-1.0,0.0,138.23,23.14,24.58,36.25,0.04,-272.73,-272.74,-43,540,-938,18.0,0.9,-39.6,18.1,1.0,-39.1,5.73,2.51,-36.3,23.0
2012-01-15 00:30:00,0.0,1.9371,0.0009,403.08,0.16,-1.0,0.0,138.23,23.15,24.57,36.25,0.04,-272.73,-272.73,-43,540,-938,18.0,0.9,-39.7,18.1,1.0,-39.1,5.73,2.49,-36.3,23.0
2012-01-15 00:31:00,0.0,1.9369,0.0009,403.16,0.20,-1.0,0.0,138.23,23.15,24.58,36.25,0.04,-272.74,-272.74,-43,540,-938,18.0,0.9,-39.7,18.1,1.0,-39.1,5.73,2.47,-36.3,23.0
2012-01-15 00:32:00,0.0,1.9365,0.0008,403.08,0.17,-1.0,0.0,138.23,23.15,24.58,36.26,0.04,-272.74,-272.74,-44,540,-938,18.0,0.9,-39.6,18.1,1.0,-39.2,5.73,2.45,-36.3,23.1
2012-01-15 00:33:00,0.0,1.9361,0.0008,403.11,0.20,-1.0,0.0,138.23,23.15,24.58,36.26,0.04,-272.73,-272.73,-44,540,-939,18.0,0.9,-39.7,18.1,1.0,-39.1,5.73,2.46,-36.3,23.1
2012-01-15 00:34:00,0.0,1.9361,0.0009,403.10,0.16,-1.0,0.0,138.24,23.14,24.58,36.26,0.04,-272.74,-272.74,-43,540,-938,18.0,0.9,-39.6,18.1,1.0,-39.1,5.73,2.48,-36.3,23.1
2012-01-15 00:35:00,0.0,1.9351,0.0009,403.05,0.18,-1.0,0.0,138.23,23.15,24.58,36.26,0.04,-272.74,-272.74,-43,540,-938,18.0,1.0,-39.5,18.1,1.0,-39.2,5.73,2.51,-36.3,23.1
2012-01-15 00:36:00,0.0,1.9344,0.0009,403.11,0.20,-1.0,0.0,138.23,23.15,24.58,36.25,0.04,-272.73,-272.74,-44,540,-938,18.0,1.0,-39.5,18.0,1.0,-39.2,5.73,2.51,-36.3,23.1
2012-01-15 00:37:00,0.0,1.9344,0.0008,403.06,0.20,-1.0,0.0,138.23,23.15,24.58,36.26,0.04,-272.73,-272.73,-44,540,-938,18.0,1.0,-39.4,18.0,1.0,-39.1,5.73,2.49,-36.3,23.1
2012-01-15 00:38:00,0.0,1.9350,0.0009,402.99,0.21,-1.0,0.0,138.23,23.15,24.58,36.26,0.04,-272.73,-272.74,-44,540,-938,17.9,1.0,-39.4,18.0,1.0,-38.9,5.73,2.46,-36.3,23.1
2012-01-15 00:39:00,0.0,1.9342,0.0009,403.06,0.18,-1.0,0.0,138.23,23.15,24.58,36.26,0.04,-272.73,-272.73,-43,540,-939,18.0,1.0,-39.5,18.0,1.0,-38.9,5.73,2.46,-36.3,23.1
2012-01-15 00:40:00,0.0,1.9342,0.0010,403.07,0.17,-1.0,0.0,138.23,23.14,24.58,36.25,0.04,-272.73,-272.74,-43,540,-938,18.0,1.0,-39.4,18.0,1.0,-38.9,5.73,2.47,-36.3,23.1
2012-01-15 00:41:00,0.0,1.9339,0.0009,403.07,0.18,-1.0,0.0,138.23,23.15,24.58,36.26,0.04,-272.74,-272.74,-44,540,-938,18.0,1.0,-39.5,18.0,1.0,-38.9,5.73,2.49,-36.3,23.1
2012-01-15 00:42:00,0.0,1.9348,0.0008,403.07,0.19,-1.0,0.0,138.23,23.15,24.58,36.26,0.04,-272.73,-272.73,-44,540,-938,18.0,1.0,-39.4,18.1,1.0,-38.9,5.73,2.51,-36.3,23.0
2012-01-15 00:43:00,0.0,1.9350,0.0010,403.11,0.20,-1.0,0.0,138.23,23.15,24.58,36.25,0.04,-272.73,-272.73,-44,540,-938,18.0,1.0,-39.4,18.1,1.0,-38.9,5.73,2.50,-36.3,23.0
2012-01-15 00:44:00,0.0,1.9348,0.0010,402.98,0.20,-1.0,0.0,138.23,23.15,24.57,36.26,0.04,-272.73,-272.73,-43,540,-938,18.0,1.0,-39.4,18.1,1.0,-38.8,5.73,2.48,-36.3,23.0
2012-01-15 00:45:00,0.0,1.9345,0.0009,403.10,0.19,-1.0,0.0,138.23,23.15,24.57,36.25,0.04,-272.74,-272.74,-44,540,-938,18.0,1.0,-39.4,18.1,1.0,-38.8,5.73,2.46,-36.3,23.0
2012-01-15 00:46:00,0.0,1.9340,0.0010,403.05,0.17,-1.0,0.0,138.23,23.15,24.57,36.26,0.04,-272.74,-272.73,-44,540,-938,18.0,1.0,-39.4,18.1,1.0,-38.9,5.73,2.45,-36.3,23.0
2012-01-15 00:47:00,0.0,1.9333,0.0011,403.02,0.18,-1.0,0.0,138.23,23.15,24.58,36.25,0.04,-272.73,-272.73,-44,540,-938,18.0,1.0,-39.4,18.1,1.0,-38.9,5.73,2.47,-36.2,23.0
2012-01-15 00:48:00,0.0,1.9330,0.0009,403.04,0.14,-1.0,0.0,138.23,23.15,24.58,36.25,0.04,-272.73,-272.74,-44,540,-938,18.0,1.0,-39.4,18.1,1.0,-38.9,5.73,2.49,-36.3,23.0
2012-01-15 00:49:00,0.0,1.9330,0.0011,403.05,0.20,-1.0,0.0,138.23,23.15,24.58,36.26,0.04,-272.74,-272.74,-43,540,-938,18.0,1.0,-39.2,18.1,1.0,-38.6,5.73,2.51,-36.3,23.0
2012-01-15 00:50:00,0.0,1.9339,0.0009,403.04,0.16,-1.0,0.0,138.23,23.15,24.58,36.25,0.04,-272.73,-272.73,-43,540,-938,18.0,1.0,-39.1,18.1,1.0,-38.6,5.73,2.50,-36.3,23.0
2012-01-15 00:51:00,0.0,1.9340,0.0009,403.06,0.18,-1.0,0.0,138.23,23.15,24.58,36.26,0.04,-272.74,-272.74,-44,540,-939,18.0,1.0,-39.2,18.1,1.0,-38.6,5.73,2.48,-36.3,23.0
2012-01-15 00:52:00,0.0,1.9342,0.0010,402.99,0.17,-1.0,0.0,138.23,23.15,24.58,36.26,0.04,-272.73,-272.74,-44,540,-939,18.0,1.0,-39.1,18.1,1.0,-38.6,5.73,2.45,-36.3,23.0
2012-01-15 00:53:00,0.0,1.9339,0.0008,403.07,0.19,-1.0,0.0,138.23,23.15,24.58,36.26,0.04,-272.73,-272.73,-44,540,-938,18.0,1.0,-39.1,18.1,1.0,-38.6,5.73,2.45,-36.2,23.0
2012-01-15 00:54:00,0.0,1.9340,0.0008,403.00,0.21,-1.0,0.0,138.23,23.15,24.58,36.26,0.04,-272.73,-272.73,-43,540,-938,18.0,1.0,-38.9,18.1,1.0,-38.6,5.73,2.47,-36.3,23.1
2012-01-15 00:55:00,0.0,1.9346,0.0009,403.06,0.20,-1.0,0.0,138.23,23.15,24.58,36.26,0.04,-272.74,-272.74,-44,540,-938,18.0,1.0,-38.8,18.1,1.0,-38.6,5.73,2.50,-36.3,23.1
2012-01-15 00:56:00,0.0,1.9343,0.0010,403.09,0.17,-1.0,0.0,138.23,23.15,24.58,36.25,0.04,-272.74,-272.74,-44,540,-938,18.0,1.0,-38.9,18.1,1.0,-38.6,5.73,2.51,-36.2,23.1
2012-01-15 00:57:00,0.0,1.9336,0.0009,403.06,0.20,-1.0,0.0,138.23,23.15,24.58,36.25,0.04,-272.74,-272.74,-44,540,-938,18.0,1.0,-38.9,18.1,1.0,-38.5,5.73,2.50,-36.2,23.1
2012-01-15 00:58:00,0.0,1.9340,0.0009,402.98,0.19,-1.0,0.0,138.23,23.15,24.58,36.26,0.04,-272.73,-272.74,-44,540,-938,18.0,1.0,-38.8,18.1,1.1,-38.4,5.73,2.47,-36.3,23.1
2012-01-15 00:59:00,0.0,1.9347,0.0008,403.06,0.22,-1.0,0.0,138.23,23.15,24.57,36.25,0.04,-272.73,-272.74,-43,540,-938,18.0,1.0,-38.9,18.1,1.1,-38.3,5.73,2.44,-36.3,23.1
2012-01-15 01:00:00,0.0,1.9343,0.0010,403.07,0.16,-1.0,0.0,138.23,23.15,24.58,36.26,0.04,-272.73,-272.74,-43,540,-938,18.0,1.0,-38.9,18.1,1.1,-38.3,5.73,2.45,-36.2,23.1
2012-01-15 01:01:00,0.0,1.9328,0.0009,402.96,0.19,-1.0,0.0,138.23,23.15,24.58,36.26,0.04,-272.74,-272.74,-44,540,-938,18.0,1.0,-38.9,18.1,1.1,-38.4,5.73,2.48,-36.2,23.1
2012-01-15 01:02:00,0.0,1.9327,0.0009,403.00,0.25,-1.0,0.0,138.23,23.15,24.58,36.26,0.04,-272.74,-272.74,-44,540,-938,18.0,1.0,-38.9,18.1,1.1,-38.3,5.73,2.51,-36.2,23.1
2012-01-15 01:03:00,0.0,1.9325,0.0007,403.01,0.19,-1.0,0.0,138.23,23.15,24.58,36.26,0.04,-272.74,-272.74,-44,540,-938,18.0,1.0,-38.9,18.1,1.1,-38.3,5.73,2.51,-36.2,23.1
2012-01-15 01:04:00,0.0,1.9327,0.0009,402.99,0.16,-1.0,0.0,138.23,23.15,24.58,36.26,0.04,-272.73,-272.73,-43,540,-938,18.0,1.0,-38.9,18.1,1.1,-38.4,5.73,2.49,-36.2,23.1
2012-01-15 01:05:00,0.0,1.9329,0.0009,403.08,0.17,-1.0,0.0,138.23,23.15,24.58,36.25,0.04,-272.73,-272.74,-44,540,-938,18.0,1.0,-38.8,18.1,1.1,-38.3,5.73,2.46,-36.2,23.1
2012-01-15 01:06:00,0.0,1.9327,0.0009,403.03,0.17,-1.0,0.0,138.23,23.15,24.58,36.26,0.04,-272.74,-272.74,-44,540,-939,18.0,1.0,-38.8,18.1,1.1,-38.3,5.73,2.45,-36.2,23.0
2012-01-15 01:07:00,0.0,1.9334,0.0007,403.01,0.20,-1.0,0.0,138.23,23.15,24.57,36.25,0.04,-272.74,-272.73,-44,540,-938,18.0,1.0,-38.9,18.1,1.1,-38.4,5.73,2.46,-36.2,23.1
2012-01-15 01:08:00,0.0,1.9341,0.0010,403.03,0.20,-1.0,0.0,138.23,23.15,24.58,36.26,0.04,-272.74,-272.74,-43,540,-939,18.0,1.0,-38.8,18.1,1.1,-38.4,5.73,2.48,-36.2,23.1
2012-01-15 01:09:00,0.0,1.9343,0.0009,403.08,0.15,-1.0,0.0,138.23,23.15,24.58,36.25,0.04,-272.74,-272.74,-43,540,-938,18.0,1.0,-38.9,18.1,1.1,-38.5,5.73,2.51,-36.2,23.1
2012-01-15 01:10:00,0.0,1.9352,0.0010,403.03,0.18,-1.0,0.0,138.23,23.16,24.58,36.26,0.04,-272.73,-272.74,-43,540,-938,18.0,1.0,-38.9,18.1,1.0,-38.6,5.73,2.51,-36.2,23.0
2012-01-15 01:11:00,0.0,1.9352,0.0010,403.10,0.20,-1.0,0.0,138.23,23.16,24.58,36.25,0.04,-272.73,-272.74,-44,540,-938,18.0,1.0,-39.1,18.1,1.0,-38.6,5.73,2.49,-36.2,23.0
2012-01-15 01:12:00,0.0,1.9348,0.0009,403.01,0.19,-1.0,0.0,138.23,23.16,24.58,36.26,0.04,-272.74,-272.74,-44,540,-938,18.0,1.0,-39.1,18.1,1.0,-38.7,5.73,2.47,-36.2,23.1
2012-01-15 01:13:00,0.0,1.9333,0.0012,403.07,0.20,-1.0,0.0,138.23,23.16,24.58,36.25,0.04,-272.74,-272.74,-44,540,-938,18.0,1.0,-39.1,18.1,1.0,-38.6,5.73,2.45,-36.2,23.1
2012-01-15 01:14:00,0.0,1.9325,0.0009,402.97,0.19,-1.0,0.0,138.23,23.16,24.58,36.26,0.04,-272.73,-272.73,-43,540,-938,18.0,1.0,-39.2,18.1,1.0,-38.6,5.73,2.46,-36.2,23.1
2012-01-15 01:15:00,0.0,1.9325,0.0009,403.08,0.18,-1.0,0.0,138.23,23.16,24.58,36.25,0.04,-272.73,-272.73,-43,540,-938,18.0,1.0,-39.1,18.1,1.0,-38.6,5.73,2.48,-36.2,23.1
2012-01-15 01:16:00,0.0,1.9325,0.0010,402.87,0.16,-1.0,0.0,138.23,23.16,24.58,36.26,0.04,-272.74,-272.74,-44,540,-938,18.0,1.0,-39.1,18.1,1.0,-38.6,5.73,2.50,-36.2,23.1
2012-01-15 01:17:00,0.0,1.9319,0.0010,402.93,0.21,-1.0,0.0,138.23,23.16,24.58,36.26,0.04,-272.73,-272.73,-44,540,-938,18.0,1.0,-39.3,18.1,1.0,-38.6,5.73,2.51,-36.2,23.1
2012-01-15 01:18:00,0.0,1.9320,0.0008,402.96,0.22,-1.0,0.0,138.23,23.16,24.58,36.25,0.04,-272.73,-272.74,-43,540,-938,18.0,1.0,-39.4,18.1,1.0,-38.8,5.73,2.50,-36.2,23.1
2012-01-15 01:19:00,0.0,1.9323,0.0009,402.92,0.19,-1.0,0.0,138.23,23.16,24.58,36.26,0.04,-272.73,-272.74,-43,540,-938,18.0,1.0,-39.4,18.1,1.0,-38.8,5.73,2.47,-36.2,23.1
2012-01-15 01:20:00,0.0,1.9318,0.0009,402.83,0.23,-1.0,0.0,138.23,23.16,24.58,36.26,0.04,-272.73,-272.74,-44,540,-938,18.0,1.0,-39.4,18.1,1.0,-38.9,5.73,2.45,-36.2,23.1
2012-01-15 01:21:00,0.0,1.9321,0.0008,402.92,0.19,-1.0,0.0,138.23,23.16,24.58,36.26,0.04,-272.73,-272.73,-44,540,-938,18.0,1.0,-39.4,18.1,1.0,-38.9,5.73,2.46,-36.1,23.1
2012-01-15 01:22:00,0.0,1.9326,0.0009,402.86,0.17,-1.0,0.0,138.24,23.16,24.58,36.26,0.04,-272.74,-272.74,-44,540,-938,18.0,1.0,-39.4,18.1,1.0,-38.8,5.73,2.48,-36.1,23.1
2012-01-15 01:23:00,0.0,1.9320,0.0010,402.98,0.21,-1.0,0.0,138.23,23.17,24.58,36.25,0.04,-272.74,-272.73,-44,540,-938,18.0,1.0,-39.3,18.1,1.0,-38.7,5.73,2.51,-36.1,23.1
2012-01-15 01:24:00,0.0,1.9325,0.0011,402.82,0.20,-1.0,0.0,138.24,23.17,24.58,36.26,0.04,-272.74,-272.74,-43,540,-938,18.0,1.0,-39.2,18.1,1.0,-38.6,5.73,2.51,-36.1,23.1
2012-01-15 01:25:00,0.0,1.9322,0.0009,402.95,0.19,-1.0,0.0,138.23,23.17,24.58,36.26,0.04,-272.74,-272.74,-43,540,-938,18.0,1.0,-39.1,18.1,1.0,-38.6,5.73,2.49,-36.1,23.1
2012-01-15 01:26:00,0.0,1.9320,0.0010,402.87,0.16,-1.0,0.0,138.23,23.17,24.58,36.26,0.04,-272.74,-272.73,-44,540,-938,18.0,1.0,-39.1,18.1,1.0,-38.6,5.73,2.46,-36.1,23.1
2012-01-15 01:27:00,0.0,1.9318,0.0008,402.83,0.18,-1.0,0.0,138.23,23.17,24.58,36.26,0.04,-272.74,-272.73,-44,540,-938,18.0,1.0,-39.2,18.1,1.0,-38.6,5.73,2.45,-36.1,23.1
2012-01-15 01:28:00,0.0,1.9318,0.0011,402.84,0.17,-1.0,0.0,138.23,23.17,24.58,36.26,0.04,-272.73,-272.74,-43,540,-938,18.0,1.0,-39.1,18.1,1.0,-38.6,5.73,2.46,-36.1,23.1
2012-01-15 01:29:00,0.0,1.9325,0.0009,402.96,0.15,-1.0,0.0,138.23,23.17,24.57,36.25,0.04,-272.74,-272.74,-43,540,-938,18.0,1.0,-39.1,18.1,1.0,-38.6,5.73,2.49,-36.1,23.1
2012-01-15 01:30:00,0.0,1.9322,0.0010,402.82,0.17,-1.0,0.0,138.23,23.17,24.58,36.25,0.04,-272.74,-272.74,-44,540,-938,18.0,1.0,-39.1,18.1,1.0,-38.6,5.73,2.51,-36.1,23.1
2012-01-15 01:31:00,0.0,1.9324,0.0010,402.79,0.20,-1.0,0.0,138.23,23.17,24.58,36.26,0.04,-272.73,-272.74,-44,540,-938,18.0,1.0,-38.9,18.1,1.0,-38.6,5.73,2.51,-36.0,23.1
2012-01-15 01:32:00,0.0,1.9325,0.0008,402.76,0.18,-1.0,0.0,138.23,23.17,24.58,36.25,0.04,-272.74,-272.74,-44,540,-938,18.0,1.0,-38.8,18.1,1.1,-38.3,5.73,2.49,-36.1,23.1
2012-01-15 01:33:00,0.0,1.9331,0.0009,402.66,0.18,-1.0,0.0,138.23,23.17,24.57,36.26,0.04,-272.74,-272.74,-43,540,-938,18.0,1.0,-38.9,18.1,1.1,-38.3,5.73,2.46,-36.1,23.1
2012-01-15 01:34:00,0.0,1.9337,0.0011,402.60,0.17,-1.0,0.0,138.23,23.17,24.57,36.26,0.04,-272.73,-272.73,-43,540,-938,18.0,1.0,-38.8,18.1,1.1,-38.4,5.73,2.45,-36.1,23.1
2012-01-15 01:35:00,0.0,1.9342,0.0009,402.66,0.21,-1.0,0.0,138.23,23.17,24.58,36.26,0.04,-272.73,-272.73,-44,540,-938,18.0,1.0,-38.6,18.1,1.1,-38.3,5.73,2.46,-36.1,23.1
2012-01-15 01:36:00,0.0,1.9344,0.0009,402.63,0.19,-1.0,0.0,138.23,23.17,24.58,36.26,0.04,-272.74,-272.73,-44,540,-938,18.0,1.0,-38.6,18.1,1.1,-38.1,5.73,2.49,-36.0,23.1
2012-01-15 01:37:00,0.0,1.9344,0.0009,402.67,0.20,-1.0,0.0,138.23,23.17,24.58,36.25,0.04,-272.74,-272.73,-44,540,-938,18.0,1.0,-38.6,18.1,1.1,-38.1,5.73,2.50,-36.0,23.1
2012-01-15 01:38:00,0.0,1.9349,0.0011,402.64,0.18,-1.0,0.0,138.23,23.17,24.58,36.26,0.04,-272.74,-272.74,-43,540,-938,18.0,1.1,-38.4,18.1,1.1,-38.1,5.73,2.51,-36.0,23.1
2012-01-15 01:39:00,0.0,1.9349,0.0009,402.62,0.18,-1.0,0.0,138.23,23.17,24.58,36.26,0.04,-272.74,-272.74,-43,540,-938,18.0,1.1,-38.4,18.1,1.1,-37.9,5.73,2.49,-36.1,23.1
2012-01-15 01:40:00,0.0,1.9359,0.0011,402.62,0.16,-1.0,0.0,138.23,23.16,24.58,36.25,0.04,-272.74,-272.74,-44,540,-938,18.0,1.1,-38.4,18.1,1.1,-37.9,5.73,2.46,-36.1,23.1
2012-01-15 01:41:00,0.0,1.9368,0.0008,402.57,0.20,-1.0,0.0,138.23,23.17,24.58,36.26,0.04,-272.73,-272.74,-44,540,-938,18.0,1.1,-38.4,18.1,1.1,-37.9,5.73,2.45,-36.0,23.1
2012-01-15 01:42:00,0.0,1.9369,0.0010,402.61,0.19,-1.0,0.0,138.23,23.17,24.57,36.26,0.04,-272.74,-272.73,-44,540,-938,18.0,1.1,-38.3,18.1,1.1,-37.9,5.73,2.46,-36.0,23.1
2012-01-15 01:43:00,0.0,1.9364,0.0008,402.56,0.15,-1.0,0.0,138.23,23.17,24.58,36.26,0.04,-272.74,-272.74,-44,540,-938,18.0,1.1,-38.2,18.1,1.1,-37.7,5.73,2.48,-36.0,23.1
2012-01-15 01:44:00,0.0,1.9367,0.0008,402.67,0.21,-1.0,0.0,138.23,23.17,24.58,36.25,0.04,-272.74,-272.73,-43,540,-938,18.0,1.1,-38.1,18.1,1.1,-37.6,5.73,2.51,-36.0,23.1
2012-01-15 01:45:00,0.0,1.9372,0.0009,402.56,0.17,-1.0,0.0,138.23,23.17,24.58,36.26,0.04,-272.74,-272.73,-44,540,-938,18.0,1.1,-38.1,18.1,1.2,-37.6,5.73,2.51,-36.0,23.1
2012-01-15 01:46:00,0.0,1.9375,0.0008,402.50,0.17,-1.0,0.0,138.23,23.17,24.58,36.26,0.04,-272.74,-272.74,-44,540,-939,18.0,1.1,-38.1,18.1,1.1,-37.6,5.73,2.49,-36.0,23.1
2012-01-15 01:47:00,0.0,1.9385,0.0009,402.50,0.19,-1.0,0.0,138.23,23.17,24.57,36.26,0.04,-272.73,-272.74,-44,540,-938,18.0,1.1,-38.1,18.1,1.1,-37.6,5.73,2.46,-36.0,23.1
2012-01-15 01:48:00,0.0,1.9383,0.0009,402.49,0.20,-1.0,0.0,138.23,23.17,24.58,36.26,0.04,-272.73,-272.73,-44,540,-938,18.0,1.1,-38.1,18.1,1.1,-37.6,5.73,2.45,-36.0,23.1
2012-01-15 01:49:00,0.0,1.9385,0.0009,402.54,0.18,-1.0,0.0,138.23,23.17,24.58,36.25,0.04,-272.74,-272.74,-43,540,-938,18.0,1.1,-38.1,18.1,1.1,-37.6,5.73,2.46,-36.0,23.1
2012-01-15 01:50:00,0.0,1.9387,0.0010,402.51,0.18,-1.0,0.0,138.23,23.17,24.58,36.26,0.04,-272.74,-272.74,-44,540,-938,18.0,1.1,-38.1,18.1,1.1,-37.7,5.73,2.48,-36.0,23.1
2012-01-15 01:51:00,0.0,1.9390,0.0009,402.55,0.17,-1.0,0.0,138.23,23.17,24.57,36.25,0.04,-272.73,-272.73,-44,540,-938,18.0,1.1,-38.1,18.1,1.2,-37.6,5.73,2.50,-36.0,23.0
2012-01-15 01:52:00,0.0,1.9387,0.0009,402.55,0.17,-1.0,0.0,138.23,23.17,24.58,36.25,0.04,-272.73,-272.74,-44,540,-938,18.1,1.1,-38.1,18.1,1.1,-37.6,5.73,2.51,-36.0,23.1
2012-01-15 01:53:00,0.0,1.9387,0.0008,402.52,0.17,-1.0,0.0,138.23,23.17,24.58,36.26,0.04,-272.74,-272.74,-44,540,-938,18.1,1.1,-37.9,18.1,1.1,-37.6,5.73,2.49,-36.0,23.1
2012-01-15 01:54:00,0.0,1.9385,0.0009,402.52,0.24,-1.0,0.0,138.23,23.17,24.58,36.25,0.04,-272.74,-272.74,-43,540,-938,18.1,1.1,-37.9,18.1,1.2,-37.5,5.73,2.47,-36.0,23.1
2012-01-15 01:55:00,0.0,1.9388,0.0009,402.54,0.18,-1.0,0.0,138.23,23.17,24.58,36.25,0.04,-272.73,-272.74,-44,540,-938,18.1,1.1,-37.8,18.1,1.2,-37.4,5.73,2.45,-36.0,23.1
2012-01-15 01:56:00,0.0,1.9386,0.0009,402.48,0.21,-1.0,0.0,138.23,23.18,24.58,36.26,0.04,-272.74,-272.74,-44,540,-938,18.1,1.1,-37.8,18.1,1.2,-37.4,5.73,2.46,-36.0,23.2
2012-01-15 01:57:00,0.0,1.9387,0.0009,402.52,0.20,-1.0,0.0,138.23,23.18,24.58,36.25,0.04,-272.74,-272.74,-44,540,-938,18.1,1.1,-37.8,18.1,1.2,-37.3,5.73,2.47,-36.0,23.2
2012-01-15 01:58:00,0.0,1.9384,0.0010,402.54,0.18,-1.0,0.0,138.23,23.18,24.58,36.25,0.04,-272.74,-272.74,-44,540,-938,18.1,1.1,-37.8,18.1,1.2,-37.3,5.73,2.49,-36.0,23.2
2012-01-15 01:59:00,0.0,1.9382,0.0008,402.57,0.17,-1.0,0.0,138.23,23.18,24.58,36.25,0.04,-272.74,-272.74,-43,540,-938,18.1,1.1,-37.8,18.1,1.2,-37.4,5.73,2.51,-36.0,23.1
2012-01-15 02:00:00,0.0,1.9387,0.0010,402.51,0.18,-1.0,0.0,138.23,23.18,24.58,36.26,0.04,-272.74,-272.74,-44,540,-938,18.1,1.1,-37.8,18.1,1.2,-37.4,5.73,2.50,-36.0,23.1
2012-01-15 02:01:00,0.0,1.9385,0.0008,402.52,0.18,-1.0,0.0,138.23,23.18,24.58,36.25,0.04,-272.74,-272.74,-44,540,-938,18.1,1.1,-37.7,18.1,1.2,-37.3,5.73,2.48,-36.0,23.1
2012-01-15 02:02:00,0.0,1.9385,0.0008,402.53,0.17,-1.0,0.0,138.23,23.18,24.57,36.25,0.04,-272.73,-272.74,-44,540,-938,18.1,1.1,-37.6,18.1,1.2,-37.4,5.73,2.46,-36.0,23.1
2012-01-15 02:03:00,0.0,1.9386,0.0008,402.58,0.16,-1.0,0.0,138.23,23.18,24.57,36.25,0.04,-272.74,-272.74,-44,540,-938,18.1,1.2,-37.6,18.1,1.2,-37.1,5.73,2.45,-36.0,23.1
2012-01-15 02:04:00,0.0,1.9384,0.0008,402.52,0.20,-1.0,0.0,138.23,23.18,24.58,36.26,0.04,-272.73,-272.74,-44,540,-938,18.1,1.2,-37.6,18.1,1.2,-37.1,5.73,2.47,-36.0,23.2
2012-01-15 02:05:00,0.0,1.9387,0.0009,402.51,0.17,-1.0,0.0,138.23,23.18,24.57,36.26,0.04,-272.74,-272.73,-44,540,-938,18.1,1.1,-37.6,18.1,1.2,-37.1,5.73,2.49,-35.9,23.2
2012-01-15 02:06:00,0.0,1.9386,0.0009,402.56,0.19,-1.0,0.0,138.23,23.18,24.58,36.25,0.04,-272.74,-272.73,-44,540,-938,18.1,1.2,-37.6,18.1,1.2,-37.1,5.73,2.50,-35.9,23.2
2012-01-15 02:07:00,0.0,1.9386,0.0009,402.52,0.20,-1.0,0.0,138.23,23.18,24.58,36.26,0.04,-272.74,-272.74,-44,540,-938,18.1,1.2,-37.6,18.1,1.2,-37.1,5.73,2.51,-35.9,23.2
2012-01-15 02:08:00,0.0,1.9388,0.0010,402.57,0.18,-1.0,0.0,138.23,23.18,24.57,36.25,0.04,-272.73,-272.73,-44,540,-938,18.1,1.2,-37.6,18.1,1.2,-37.2,5.73,2.48,-35.9,23.1
2012-01-15 02:09:00,0.0,1.9390,0.0010,402.52,0.18,-1.0,0.0,138.23,23.18,24.57,36.25,0.04,-272.74,-272.74,-44,540,-938,18.1,1.1,-37.6,18.1,1.2,-37.2,5.73,2.46,-35.9,23.2
2012-01-15 02:10:00,0.0,1.9391,0.0009,402.44,0.19,-1.0,0.0,138.23,23.18,24.57,36.26,0.04,-272.74,-272.74,-44,540,-938,18.0,1.1,-37.6,18.1,1.2,-37.2,5.73,2.45,-35.9,23.1
2012-01-15 02:11:00,0.0,1.9386,0.0010,402.41,0.17,-1.0,0.0,138.23,23.18,24.58,36.26,0.04,-272.74,-272.74,-44,540,-938,18.1,1.2,-37.6,18.1,1.2,-37.1,5.73,2.46,-35.9,23.2
2012-01-15 02:12:00,0.0,1.9389,0.0008,402.54,0.17,-1.0,0.0,138.23,23.18,24.58,36.26,0.04,-272.74,-272.74,-44,540,-938,18.1,1.2,-37.6,18.1,1.2,-37.1,5.73,2.48,-35.9,23.2
2012-01-15 02:13:00,0.0,1.9401,0.0010,402.52,0.21,-1.0,0.0,138.23,23.19,24.58,36.26,0.04,-272.74,-272.74,-44,540,-938,18.1,1.1,-37.6,18.1,1.2,-37.1,5.73,2.50,-35.9,23.1
2012-01-15 02:14:00,0.0,1.9408,0.0008,402.57,0.16,-1.0,0.0,138.23,23.19,24.57,36.26,0.04,-272.74,-272.74,-44,540,-938,18.1,1.1,-37.6,18.1,1.2,-37.3,5.73,2.50,-35.9,23.1
2012-01-15 02:15:00,0.0,1.9416,0.0010,402.55,0.19,-1.0,0.0,138.23,23.19,24.57,36.26,0.04,-272.73,-272.74,-44,540,-938,18.1,1.1,-37.8,18.1,1.2,-37.3,5.73,2.49,-35.9,23.1
2012-01-15 02:16:00,0.0,1.9420,0.0008,402.56,0.18,-1.0,0.0,138.23,23.20,24.57,36.25,0.04,-272.74,-272.73,-44,540,-938,18.1,1.1,-37.8,18.1,1.2,-37.4,5.73,2.47,-35.9,23.1
2012-01-15 02:17:00,0.0,1.9415,0.0008,402.65,0.19,-1.0,0.0,138.23,23.20,24.57,36.25,0.04,-272.74,-272.74,-44,540,-938,18.1,1.1,-37.9,18.1,1.2,-37.4,5.73,2.45,-35.9,23.1
2012-01-15 02:18:00,0.0,1.9409,0.0009,402.54,0.22,-1.0,0.0,138.23,23.20,24.58,36.26,0.04,-272.73,-272.74,-44,540,-938,18.1,1.1,-38.1,18.1,1.1,-37.6,5.73,2.45,-35.8,23.1